Flag for India Weather past 2 weeks in Lucknow, Uttar Pradesh, India

73 °F

Partly cloudy.

Feels Like: 76 °F
Forecast: 69 / 84 °F
Wind: No wind

Location: Lucknow / Amausi

Current Time: Nov 28, 2015 at 9:16:03 PM

Latest Report: Nov 28, 2015 at 8:30 PM

Visibility: 2 mi

Pressure: 30.01 "Hg

Humidity: 65%

Dew point: 61 °F

Location of LucknowLocation

Historic Weather in Lucknow — Graph


Lucknow temperature yesterday

Maximum temperature yesterday: 81 °F (at 2:00 PM)
Minimum temperature yesterday: 59 °F (at 4:00 AM)
Average temperature yesterday: 70 °F

Past Weeks' High & Low Weather Summary

High90 °F (Nov 15, 1:30 PM)94% (Nov 27, 4:00 AM)30.09 "Hg (Nov 27, 4:00 AM)
Low54 °F (Nov 26, 7:00 AM)23% (Nov 25, 2:30 PM)29.77 "Hg (Nov 27, 3:00 PM)
Average73 °F57%29.92 "Hg
* Reported Nov 13 7:30 PM — Nov 28 8:00 PM, Lucknow, Weather by CustomWeather, © 2015

Note: Actual official high and low records may vary slightly from our data, if they occured in-between our weather recording intervals... More about our weather records


Lucknow weather history for previous 24 hours

Time TempWeatherWind HumidityBarometerVisibility
8:00 PM
Sat, Nov 28
73 °FPartly cloudy.2 mph65%29.98 "Hg1 mi
7:30 PM75 °FPartly cloudy.2 mph61%29.98 "Hg1 mi
7:00 PM75 °FPartly cloudy.2 mph61%29.98 "Hg1 mi
6:30 PM75 °FPartly cloudy.2 mph61%29.95 "Hg1 mi
6:00 PM77 °FPartly cloudy.2 mph61%29.95 "Hg1 mi
5:00 PM77 °FBroken clouds.5 mph51%29.95 "Hg1 mi
4:30 PM79 °FBroken clouds.7 mph48%29.95 "Hg2 mi
4:00 PM81 °FBroken clouds.7 mph45%29.95 "Hg2 mi
3:00 PM82 °FBroken clouds.9 mph42%29.95 "Hg2 mi
2:00 PM82 °FBroken clouds.9 mph42%29.95 "Hg2 mi
1:00 PM81 °FBroken clouds.14 mph45%29.95 "Hg2 mi
12:00 PM79 °FBroken clouds.14 mph48%29.98 "Hg2 mi
11:30 AM79 °FBroken clouds.14 mph48%29.98 "Hg2 mi
11:00 AM77 °FBroken clouds.9 mph54%29.98 "Hg2 mi
10:00 AM72 °FBroken clouds.14 mph69%30.01 "Hg1 mi
9:30 AM72 °FBroken clouds.14 mph69%30.01 "Hg1 mi
9:00 AM70 °FFog.14 mph73%29.98 "Hg1 mi
8:30 AM68 °FFog.14 mph73%29.98 "Hg1 mi
8:00 AM66 °FFog.9 mph78%29.98 "Hg1 mi
7:30 AM66 °FFog.6 mph78%29.95 "Hg1 mi
7:00 AM66 °FFog.6 mph78%29.95 "Hg1 mi
6:30 AM64 °FFog.6 mph83%29.95 "Hg1 mi
6:00 AM64 °FPassing clouds.6 mph83%29.98 "Hg1 mi
5:30 AM66 °FPartly cloudy.3 mph78%29.89 "Hg1 mi
4:00 AM66 °FPartly cloudy.3 mph78%29.89 "Hg1 mi
3:00 AM66 °FPartly cloudy.3 mph78%29.89 "Hg1 mi
2:00 AM66 °FPassing clouds.3 mph78%29.86 "Hg1 mi
1:00 AM66 °FPassing clouds.3 mph78%29.86 "Hg1 mi
12:00 AM66 °FPartly cloudy.3 mph78%29.86 "Hg1 mi
11:00 PM
Fri, Nov 27
66 °FPartly cloudy.3 mph78%29.86 "Hg1 mi
10:00 PM68 °FPartly cloudy.3 mph73%29.86 "Hg1 mi
Weather by CustomWeather, © 2015

See weather overviewHow to use our weather pages